Tracking 32139 objects as of 15-Nov-2025
HD Live streaming from Space Station
objects crossing your sky now

BOTAN

Track BOTAN now!
10-day predictions


NORAD ID: 65943
Int'l Code: 1998-067XQ
Perigee: 405.9 km
Apogee: 411.7 km
Inclination: 51.6 °
Period: 92.6 minutes
Semi major axis: 6779 km
RCS: Unknown
Launch date: November 20, 1998
Source: International Space Station (ISS)
Launch site: TYURATAM MISSILE AND SPACE COMPLEX (TTMTR)
Your satellite tracking list
Your tracking list is empty




NASA's NSSDC Master Catalog

Two Line Element Set (TLE):
1 65943U 98067XQ  25318.28293212  .00069698  00000-0  10114-2 0  9992
2 65943  51.6323 282.5192 0004274  57.2513 302.8889 15.55168737  5425
Source of the keplerian elements: AFSPC